sat.trackr.live / text

‹ back to catalog

STARLINK-35951

NORAD 66619 · 2025-271C

PAYLOAD ACTIVE UNKNOWN

§ Identity

Operator
Country
US
Launch date
2025-11-23
Launch site
AFWTR
Launch vehicle
Mass (kg)
RCS (m²)

Purposes: comms

External: N2YO · Heavens-Above · Gunter

§ Orbital elements

Epoch: 2026-09-20T10:05:45.826656Z

Period
93.85 min
Inclination
53.1588°
Eccentricity
0.0001406
Mean motion
15.34402890 rev/d
Perigee alt
461.7 km
Apogee alt
463.7 km
Semi-major
6,840.8 km
B*
5.8528e-4
RAAN
313.8188°
Arg perigee
84.2114°
Mean anomaly
275.9049°
Rev number
4,740

§ Raw data

STARLINK-359511 66619U 25271C   26263.42066929  .00019452  00000+0  58528-3 0  99932 66619  53.1588 313.8188 0001406  84.2114 275.9049 15.34402890 47400

JSON: /api/v1/satellites/66619 · /tle

For live sub-satellite position, see the globe view (requires WebGL).

§ Visibility from observer

Set your observer location to see the next 7 days of passes ≥ 10°. The values pass through the URL so the page stays shareable.

No JS? Fill the form by hand. The geolocation button needs JavaScript.